Location: Krakow
(50.0212°N, 19.9423°E)
Time: 12:56:05
(UTC+02:00)

NOAA 18 - Pass Details

Date: 01 May 2025
Orbit: 837 x 857 km, 98.8° (Epoch: 14 May)

Event Time Altitude Azimuth Distance (km) Brightness Sun altitude
Exits shadow 00:08:16 19° 246° (WSW) 1,955 6.9 -24.6°
Maximum altitude 00:09:57 21° 270° (W) 1,829 7.0 -24.6°
Drops below altitude 10° 00:14:06 10° 319° (NW) 2,501 8.4 -24.7°
Sets 00:17:06 0° 335° (NNW) 3,442 9.5 -24.8°
